Location: Vesunti
(61.5000°N, 22.8333°E)
Time: 04:39:21
(UTC+00:00)

NOSS 2-1 (D) - Pass Details

Date: 17 February 2020
Orbit: 450 x 1753 km, 63.3° (Epoch: 27 March)

Event Time Altitude Azimuth Distance (km) Brightness Sun altitude
Exits shadow 04:16:27 12° 217° (SW) 1,537 5.2 -13.8°
Maximum altitude 04:19:38 50° 143° (SE) 671 4.0 -13.4°
Drops below altitude 10° 04:23:46 10° 68° (ENE) 1,975 7.3 -12.9°
Sets 04:26:23 0° 63° (ENE) 3,063 8.3 -12.6°
